Погода в Сент Лусии

ЮАР     28°23′01″S   32°24′54″E
темп.,
°C
ветер,
м/с
пор.,
м/с
влажн.,
%
обл.,
%
осадки,
мм/ч
давл.,
гПа
погр.,
м
16 апреля, пт
пт1623:00+25юз8118216 0.1 1018929
02:00+24ююз15188065 1.0 10181324
05:00+23ююз161974100 0.8 10201659
08:00+23ююз182167100 1.5 10231958
11:00+22ююз182163100 0.2 10242026
14:00+22ююз16196236 0.3 10242065
17:00+21ю141660100 0.0 10252246
20:00+21ю111259100 0.1 10272024
17 апреля, сб
сб1723:00+20ю10106944 0.5 10281203
02:00+21ююв8856100 1.3 10261768
05:00+21ююв6654100 0.1 10271517
08:00+20ююв3353100 0.1 10271335
11:00+20з015140 0.1 10271247
14:00+21всв435311 0.1 10251139
17:00+21всв66585 0.0 10251104
20:00+21св67608 0.0 10251163
18 апреля, вс
вс1823:00+21ссв776289 0.0 10251379
02:00+20с79731 0.0 1024604
05:00+20с810690 0.0 1023787
08:00+21с811670 0.0 1024817
11:00+22с1011630 0.0 10241011
14:00+23ссв1010640 0.0 10211030
17:00+24ссв1111670 0.0 1020933
20:00+24ссв1112680 0.0 1021955
19 апреля, пн
пн1923:00+22с1013720 0.0 1021841
02:00+22с1114740 0.0 1020861
05:00+22с1115790 0.0 1019768
08:00+22с1115740 0.0 1020672
11:00+24с1011630 0.0 1019694
14:00+25ссв88590 0.0 1017615
17:00+25ссв88700 0.0 1018497
20:00+23сз44753 0.0 1022440
20 апреля, вт
вт2023:00+21зсз22790 0.0 1022116
02:00+22ссв22801 0.0 1022226
05:00+23св237634 0.2 1023557
08:00+24в33640 0.3 1024815
11:00+24всв33640 0.0 1024739
14:00+24всв44670 0.0 1021706
17:00+24всв66695 0.0 1021913
20:00+24св77690 0.0 1022865